Time,TemperatureF,DewpointF,PressureIn,WindDirection,WindDirectionDegrees,WindSpeedMPH,WindSpeedGustMPH,Humidity,HourlyPrecipIn,Conditions,Clouds,dailyrainin,SoftwareType,DateUTC
2013-08-03 00:01:00,70.2,11.1,30.05,North,0,0.0,0.0,1,0.00,,,0.00,WUHU216HW,2013-08-03 04:01:00,
2013-08-03 00:06:00,69.8,10.8,30.05,North,0,0.0,0.0,1,0.00,,,0.00,WUHU216HW,2013-08-03 04:06:00,
2013-08-03 00:11:00,69.8,10.8,30.05,North,0,0.0,0.0,1,0.00,,,0.00,WUHU216HW,2013-08-03 04:11:00,
2013-08-03 00:17:00,69.7,10.7,30.05,North,0,0.0,0.0,1,0.00,,,0.00,WUHU216HW,2013-08-03 04:17:00,
2013-08-03 00:22:00,69.7,10.7,30.05,North,0,0.0,0.0,1,0.00,,,0.00,WUHU216HW,2013-08-03 04:22:00,
2013-08-03 00:27:00,69.5,10.5,30.04,North,0,0.0,0.0,1,0.00,,,0.00,WUHU216HW,2013-08-03 04:27:00,
2013-08-03 00:32:00,69.5,10.5,30.04,North,0,0.0,0.0,1,0.00,,,0.00,WUHU216HW,2013-08-03 04:32:00,
2013-08-03 00:37:00,69.5,10.5,30.04,North,0,0.0,0.0,1,0.00,,,0.00,WUHU216HW,2013-08-03 04:37:00,
2013-08-03 00:42:00,69.5,10.5,30.04,North,0,0.0,0.0,1,0.00,,,0.00,WUHU216HW,2013-08-03 04:42:00,
2013-08-03 00:47:00,69.3,10.5,30.05,North,0,0.0,0.0,1,0.00,,,0.00,WUHU216HW,2013-08-03 04:47:00,
2013-08-03 00:52:00,69.1,10.3,30.05,North,0,0.0,0.0,1,0.00,,,0.00,WUHU216HW,2013-08-03 04:52:00,
2013-08-03 00:57:00,69.1,10.3,30.05,North,0,0.0,0.0,1,0.00,,,0.00,WUHU216HW,2013-08-03 04:57:00,
2013-08-03 01:02:00,68.8,10.1,30.05,North,0,0.0,0.0,1,0.00,,,0.00,WUHU216HW,2013-08-03 05:02:00,
2013-08-03 01:07:00,68.4,9.8,30.05,North,0,0.0,0.0,1,0.00,,,0.00,WUHU216HW,2013-08-03 05:07:00,
2013-08-03 01:12:00,68.2,9.6,30.05,North,0,0.0,0.0,1,0.00,,,0.00,WUHU216HW,2013-08-03 05:12:00,
2013-08-03 01:17:00,68.2,9.6,30.05,North,0,0.0,0.0,1,0.00,,,0.00,WUHU216HW,2013-08-03 05:17:00,
2013-08-03 01:22:00,68.2,9.6,30.05,North,0,0.0,0.0,1,0.00,,,0.00,WUHU216HW,2013-08-03 05:22:00,
2013-08-03 01:27:00,68.2,9.6,30.06,North,0,0.0,0.0,1,0.00,,,0.00,WUHU216HW,2013-08-03 05:27:00,
2013-08-03 01:32:00,68.2,9.6,30.05,North,0,0.0,0.0,1,0.00,,,0.00,WUHU216HW,2013-08-03 05:32:00,
2013-08-03 01:37:00,68.0,9.5,30.05,North,0,0.0,0.0,1,0.00,,,0.00,WUHU216HW,2013-08-03 05:37:00,
2013-08-03 01:42:00,67.9,9.4,30.06,North,0,0.0,0.0,1,0.00,,,0.00,WUHU216HW,2013-08-03 05:42:00,
2013-08-03 01:47:00,67.5,9.1,30.05,North,0,0.0,0.0,1,0.00,,,0.00,WUHU216HW,2013-08-03 05:47:00,
2013-08-03 01:52:00,67.3,9.0,30.05,North,0,0.0,0.0,1,0.00,,,0.00,WUHU216HW,2013-08-03 05:52:00,
2013-08-03 01:57:00,67.3,9.0,30.05,North,0,0.0,0.0,1,0.00,,,0.00,WUHU216HW,2013-08-03 05:57:00,
2013-08-03 02:02:00,67.3,9.0,30.05,North,0,0.0,0.0,1,0.00,,,0.00,WUHU216HW,2013-08-03 06:02:00,
2013-08-03 02:07:00,67.3,9.0,30.05,North,0,0.0,0.0,1,0.00,,,0.00,WUHU216HW,2013-08-03 06:07:00,
2013-08-03 02:12:00,67.3,9.0,30.05,North,0,0.0,0.0,1,0.00,,,0.00,WUHU216HW,2013-08-03 06:12:00,
2013-08-03 02:17:00,67.3,9.0,30.04,North,0,0.0,0.0,1,0.00,,,0.00,WUHU216HW,2013-08-03 06:17:00,
2013-08-03 02:22:00,67.3,9.0,30.04,North,0,0.0,0.0,1,0.00,,,0.00,WUHU216HW,2013-08-03 06:22:00,
2013-08-03 02:27:00,66.8,8.6,30.04,North,0,0.0,0.0,1,0.00,,,0.00,WUHU216HW,2013-08-03 06:27:00,
2013-08-03 02:32:00,66.6,8.4,30.04,North,0,0.0,0.0,1,0.00,,,0.00,WUHU216HW,2013-08-03 06:32:00,
2013-08-03 02:37:00,66.2,8.1,30.04,North,0,0.0,0.0,1,0.00,,,0.00,WUHU216HW,2013-08-03 06:37:00,
2013-08-03 02:42:00,66.1,7.9,30.04,North,0,0.0,0.0,1,0.00,,,0.00,WUHU216HW,2013-08-03 06:42:00,
2013-08-03 02:47:00,66.1,7.9,30.04,North,0,0.0,0.0,1,0.00,,,0.00,WUHU216HW,2013-08-03 06:47:00,
2013-08-03 02:52:00,66.1,7.9,30.04,North,0,0.0,0.0,1,0.00,,,0.00,WUHU216HW,2013-08-03 06:52:00,
2013-08-03 02:57:00,66.2,8.1,30.03,North,0,0.0,0.0,1,0.00,,,0.00,WUHU216HW,2013-08-03 06:57:00,
2013-08-03 03:02:00,66.2,8.1,30.03,North,0,0.0,0.0,1,0.00,,,0.00,WUHU216HW,2013-08-03 07:02:00,
2013-08-03 03:07:00,66.2,8.1,30.03,North,0,0.0,0.0,1,0.00,,,0.00,WUHU216HW,2013-08-03 07:07:00,
2013-08-03 03:12:00,66.4,8.3,30.03,North,0,0.0,0.0,1,0.00,,,0.00,WUHU216HW,2013-08-03 07:12:00,
2013-08-03 03:17:00,66.4,8.3,30.03,North,0,0.0,0.0,1,0.00,,,0.00,WUHU216HW,2013-08-03 07:17:00,
2013-08-03 03:22:00,66.4,8.3,30.03,North,0,0.0,0.0,1,0.00,,,0.00,WUHU216HW,2013-08-03 07:22:00,
2013-08-03 03:24:00,66.4,8.3,30.03,North,0,0.0,0.0,1,0.00,,,0.00,WUHU216HW,2013-08-03 07:24:00,
2013-08-03 03:27:00,66.4,8.3,30.03,North,0,0.0,0.0,1,0.00,,,0.00,WUHU216HW,2013-08-03 07:27:00,
2013-08-03 03:32:00,66.4,8.3,30.03,North,0,0.0,0.0,1,0.00,,,0.00,WUHU216HW,2013-08-03 07:32:00,
2013-08-03 03:54:00,66.4,8.3,30.02,North,0,0.0,0.0,1,0.00,,,0.00,WUHU216HW,2013-08-03 07:54:00,
2013-08-03 03:59:00,66.6,8.4,30.02,North,0,0.0,0.0,1,0.00,,,0.00,WUHU216HW,2013-08-03 07:59:00,
2013-08-03 04:04:00,66.4,8.3,30.02,North,0,0.0,0.0,1,0.00,,,0.00,WUHU216HW,2013-08-03 08:04:00,
2013-08-03 04:09:00,66.4,8.3,30.02,North,0,0.0,0.0,1,0.00,,,0.00,WUHU216HW,2013-08-03 08:09:00,
2013-08-03 04:14:00,66.4,8.3,30.02,North,0,0.0,0.0,1,0.00,,,0.00,WUHU216HW,2013-08-03 08:14:00,
2013-08-03 04:19:00,66.4,8.3,30.01,North,0,0.0,0.0,1,0.00,,,0.00,WUHU216HW,2013-08-03 08:19:00,
2013-08-03 04:24:00,66.2,8.1,30.01,North,0,0.0,0.0,1,0.00,,,0.00,WUHU216HW,2013-08-03 08:24:00,
2013-08-03 04:29:00,66.2,8.1,30.02,North,0,0.0,0.0,1,0.00,,,0.00,WUHU216HW,2013-08-03 08:29:00,
2013-08-03 04:34:00,66.2,8.1,30.02,North,0,0.0,0.0,1,0.00,,,0.00,WUHU216HW,2013-08-03 08:34:00,
2013-08-03 04:39:00,66.2,8.1,30.02,North,0,0.0,0.0,1,0.00,,,0.00,WUHU216HW,2013-08-03 08:39:00,
2013-08-03 04:44:00,66.2,8.1,30.02,North,0,0.0,0.0,1,0.00,,,0.00,WUHU216HW,2013-08-03 08:44:00,
2013-08-03 04:49:00,66.2,8.1,30.02,North,0,0.0,0.0,1,0.00,,,0.00,WUHU216HW,2013-08-03 08:49:00,
2013-08-03 04:54:00,66.2,8.1,30.02,North,0,0.0,0.0,1,0.00,,,0.00,WUHU216HW,2013-08-03 08:54:00,
2013-08-03 04:59:00,66.2,8.1,30.02,North,0,0.0,0.0,1,0.00,,,0.00,WUHU216HW,2013-08-03 08:59:00,
2013-08-03 05:04:00,66.2,8.1,30.02,North,0,0.0,0.0,1,0.00,,,0.00,WUHU216HW,2013-08-03 09:04:00,
2013-08-03 05:09:00,66.2,8.1,30.02,North,0,0.0,0.0,1,0.00,,,0.00,WUHU216HW,2013-08-03 09:09:00,
2013-08-03 05:14:00,66.2,8.1,30.03,North,0,0.0,0.0,1,0.00,,,0.00,WUHU216HW,2013-08-03 09:14:00,
2013-08-03 05:19:00,66.2,8.1,30.02,North,0,0.0,0.0,1,0.00,,,0.00,WUHU216HW,2013-08-03 09:19:00,
2013-08-03 05:24:00,66.1,7.9,30.03,North,0,0.0,0.0,1,0.00,,,0.00,WUHU216HW,2013-08-03 09:24:00,
2013-08-03 05:29:00,66.1,7.9,30.03,North,0,0.0,0.0,1,0.00,,,0.00,WUHU216HW,2013-08-03 09:29:00,
2013-08-03 05:34:00,66.1,7.9,30.03,North,0,0.0,0.0,1,0.00,,,0.00,WUHU216HW,2013-08-03 09:34:00,
2013-08-03 05:39:00,66.1,7.9,30.03,North,0,0.0,0.0,1,0.00,,,0.00,WUHU216HW,2013-08-03 09:39:00,
2013-08-03 05:44:00,66.1,7.9,30.03,North,0,0.0,0.0,1,0.00,,,0.00,WUHU216HW,2013-08-03 09:44:00,
2013-08-03 05:49:00,66.1,7.9,30.04,North,0,0.0,0.0,1,0.00,,,0.00,WUHU216HW,2013-08-03 09:49:00,
2013-08-03 05:54:00,65.9,7.8,30.03,North,0,0.0,0.0,1,0.00,,,0.00,WUHU216HW,2013-08-03 09:54:00,
2013-08-03 05:59:00,65.9,7.8,30.03,North,0,0.0,0.0,1,0.00,,,0.00,WUHU216HW,2013-08-03 09:59:00,
2013-08-03 06:04:00,65.9,7.8,30.04,North,0,0.0,0.0,1,0.00,,,0.00,WUHU216HW,2013-08-03 10:04:00,
2013-08-03 06:09:00,65.9,7.8,30.03,North,0,0.0,0.0,1,0.00,,,0.00,WUHU216HW,2013-08-03 10:09:00,
2013-08-03 06:14:00,66.1,7.9,30.04,North,0,0.0,0.0,1,0.00,,,0.00,WUHU216HW,2013-08-03 10:14:00,
2013-08-03 06:19:00,66.1,7.9,30.04,North,0,0.0,0.0,1,0.00,,,0.00,WUHU216HW,2013-08-03 10:19:00,
2013-08-03 06:24:00,66.2,8.1,30.04,North,0,0.0,0.0,1,0.00,,,0.00,WUHU216HW,2013-08-03 10:24:00,
2013-08-03 06:29:00,66.2,8.1,30.04,North,0,0.0,0.0,1,0.00,,,0.00,WUHU216HW,2013-08-03 10:29:00,
2013-08-03 06:34:00,66.2,8.1,30.04,North,0,0.0,0.0,1,0.00,,,0.00,WUHU216HW,2013-08-03 10:34:00,
2013-08-03 06:39:00,66.2,8.1,30.04,North,0,0.0,0.0,1,0.00,,,0.00,WUHU216HW,2013-08-03 10:39:00,
2013-08-03 06:44:00,66.4,8.3,30.04,North,0,0.0,0.0,1,0.00,,,0.00,WUHU216HW,2013-08-03 10:44:00,
2013-08-03 06:49:00,66.6,8.4,30.04,North,0,0.0,0.0,1,0.00,,,0.00,WUHU216HW,2013-08-03 10:49:00,
2013-08-03 06:54:00,66.6,8.4,30.04,North,0,0.0,0.0,1,0.00,,,0.00,WUHU216HW,2013-08-03 10:54:00,
2013-08-03 06:59:00,66.8,8.6,30.04,North,0,0.0,0.0,1,0.00,,,0.00,WUHU216HW,2013-08-03 10:59:00,
2013-08-03 07:04:00,66.8,8.6,30.04,North,0,0.0,0.0,1,0.00,,,0.00,WUHU216HW,2013-08-03 11:04:00,
2013-08-03 07:09:00,67.0,8.6,30.04,North,0,0.0,0.0,1,0.00,,,0.00,WUHU216HW,2013-08-03 11:09:00,
2013-08-03 07:14:00,67.1,8.8,30.04,North,0,0.0,0.0,1,0.00,,,0.00,WUHU216HW,2013-08-03 11:14:00,
2013-08-03 07:19:00,67.1,8.8,30.04,North,0,0.0,0.0,1,0.00,,,0.00,WUHU216HW,2013-08-03 11:19:00,
2013-08-03 07:24:00,67.3,9.0,30.04,North,0,0.0,0.0,1,0.00,,,0.00,WUHU216HW,2013-08-03 11:24:00,
2013-08-03 07:29:00,67.0,8.6,30.04,North,0,0.0,0.0,1,0.00,,,0.00,WUHU216HW,2013-08-03 11:29:00,
2013-08-03 07:34:00,67.3,9.0,30.04,North,0,0.0,0.0,1,0.00,,,0.00,WUHU216HW,2013-08-03 11:34:00,
2013-08-03 07:39:00,67.3,9.0,30.04,North,0,0.0,0.0,1,0.00,,,0.00,WUHU216HW,2013-08-03 11:39:00,
2013-08-03 07:44:00,67.5,9.1,30.04,North,0,0.0,0.0,1,0.00,,,0.00,WUHU216HW,2013-08-03 11:44:00,
2013-08-03 07:49:00,67.7,9.3,30.04,North,0,0.0,0.0,1,0.00,,,0.00,WUHU216HW,2013-08-03 11:49:00,
2013-08-03 07:54:00,67.9,9.4,30.04,North,0,0.0,0.0,1,0.00,,,0.00,WUHU216HW,2013-08-03 11:54:00,
2013-08-03 07:59:00,68.0,9.5,30.04,North,0,0.0,0.0,1,0.00,,,0.00,WUHU216HW,2013-08-03 11:59:00,
2013-08-03 08:04:00,68.2,9.6,30.04,North,0,0.0,0.0,1,0.00,,,0.00,WUHU216HW,2013-08-03 12:04:00,
2013-08-03 08:09:00,68.4,9.8,30.04,North,0,0.0,0.0,1,0.00,,,0.00,WUHU216HW,2013-08-03 12:09:00,
2013-08-03 08:14:00,68.8,10.1,30.04,North,0,0.0,0.0,1,0.00,,,0.00,WUHU216HW,2013-08-03 12:14:00,
2013-08-03 08:19:00,68.9,10.2,30.04,North,0,0.0,0.0,1,0.00,,,0.00,WUHU216HW,2013-08-03 12:19:00,
2013-08-03 08:24:00,69.3,10.5,30.04,North,0,0.0,0.0,1,0.00,,,0.00,WUHU216HW,2013-08-03 12:24:00,
2013-08-03 08:29:00,69.7,10.7,30.04,North,0,0.0,0.0,1,0.00,,,0.00,WUHU216HW,2013-08-03 12:29:00,
2013-08-03 08:34:00,69.8,10.8,30.05,North,0,0.0,0.0,1,0.00,,,0.00,WUHU216HW,2013-08-03 12:34:00,
2013-08-03 08:39:00,70.2,11.1,30.05,North,0,0.0,0.0,1,0.00,,,0.00,WUHU216HW,2013-08-03 12:39:00,
2013-08-03 08:40:00,70.2,11.1,30.04,North,0,0.0,0.0,1,0.00,,,0.00,WUHU216HW,2013-08-03 12:40:00,
2013-08-03 08:44:00,70.2,11.1,30.04,North,0,0.0,0.0,1,0.00,,,0.00,WUHU216HW,2013-08-03 12:44:00,
2013-08-03 08:49:00,70.2,11.1,30.04,North,0,0.0,0.0,1,0.00,,,0.00,WUHU216HW,2013-08-03 12:49:00,
2013-08-03 09:00:00,71.6,12.2,30.04,North,0,0.0,0.0,1,0.00,,,0.00,WUHU216HW,2013-08-03 13:00:00,
2013-08-03 09:05:00,71.8,12.4,30.04,North,0,0.0,0.0,1,0.00,,,0.00,WUHU216HW,2013-08-03 13:05:00,
2013-08-03 09:10:00,72.7,13.2,30.04,North,0,0.0,0.0,1,0.00,,,0.00,WUHU216HW,2013-08-03 13:10:00,
2013-08-03 09:15:00,73.1,13.4,30.05,North,0,0.0,0.0,1,0.00,,,0.00,WUHU216HW,2013-08-03 13:15:00,
2013-08-03 09:20:00,73.1,13.4,30.05,North,0,0.0,0.0,1,0.00,,,0.00,WUHU216HW,2013-08-03 13:20:00,
2013-08-03 09:25:00,73.3,13.5,30.05,North,0,0.0,0.0,1,0.00,,,0.00,WUHU216HW,2013-08-03 13:25:00,
2013-08-03 09:30:00,73.6,13.8,30.05,North,0,0.0,0.0,1,0.00,,,0.00,WUHU216HW,2013-08-03 13:30:00,
2013-08-03 09:35:00,73.8,14.0,30.05,North,0,0.0,0.0,1,0.00,,,0.00,WUHU216HW,2013-08-03 13:35:00,
2013-08-03 09:40:00,73.8,14.0,30.05,North,0,0.0,0.0,1,0.00,,,0.00,WUHU216HW,2013-08-03 13:40:00,
2013-08-03 09:45:00,74.0,14.0,30.05,North,0,0.0,0.0,1,0.00,,,0.00,WUHU216HW,2013-08-03 13:45:00,
2013-08-03 09:50:00,73.6,13.8,30.05,North,0,0.0,0.0,1,0.00,,,0.00,WUHU216HW,2013-08-03 13:50:00,
2013-08-03 09:55:00,73.8,14.0,30.05,North,0,0.0,0.0,1,0.00,,,0.00,WUHU216HW,2013-08-03 13:55:00,
2013-08-03 10:00:00,73.8,14.0,30.05,North,0,0.0,0.0,1,0.00,,,0.00,WUHU216HW,2013-08-03 14:00:00,
2013-08-03 10:05:00,73.3,13.5,30.05,North,0,0.0,0.0,1,0.00,,,0.00,WUHU216HW,2013-08-03 14:05:00,
2013-08-03 10:10:00,73.3,13.5,30.04,North,0,0.0,0.0,1,0.00,,,0.00,WUHU216HW,2013-08-03 14:10:00,
2013-08-03 10:15:00,73.1,13.4,30.04,North,0,0.0,0.0,1,0.00,,,0.00,WUHU216HW,2013-08-03 14:15:00,
2013-08-03 10:20:00,73.4,13.7,30.04,North,0,0.0,0.0,1,0.00,,,0.00,WUHU216HW,2013-08-03 14:20:00,
2013-08-03 10:25:00,74.0,14.0,30.04,North,0,0.0,0.0,1,0.00,,,0.00,WUHU216HW,2013-08-03 14:25:00,
2013-08-03 10:30:00,74.3,14.3,30.04,North,0,0.0,0.0,1,0.00,,,0.00,WUHU216HW,2013-08-03 14:30:00,
2013-08-03 10:35:00,74.5,14.4,30.04,North,0,0.0,0.0,1,0.00,,,0.00,WUHU216HW,2013-08-03 14:35:00,
2013-08-03 10:40:00,75.1,14.9,30.04,North,0,0.0,0.0,1,0.00,,,0.00,WUHU216HW,2013-08-03 14:40:00,
2013-08-03 10:45:00,75.4,15.1,30.04,North,0,0.0,0.0,1,0.00,,,0.00,WUHU216HW,2013-08-03 14:45:00,
2013-08-03 10:50:00,76.7,16.1,30.04,North,0,0.0,0.0,1,0.00,,,0.00,WUHU216HW,2013-08-03 14:50:00,
2013-08-03 10:55:00,77.9,17.0,30.03,North,0,0.0,0.0,1,0.00,,,0.00,WUHU216HW,2013-08-03 14:55:00,
2013-08-03 11:00:00,78.3,17.3,30.03,North,0,0.0,0.0,1,0.00,,,0.00,WUHU216HW,2013-08-03 15:00:00,
2013-08-03 11:05:00,79.9,18.6,30.03,North,0,0.0,0.0,1,0.00,,,0.00,WUHU216HW,2013-08-03 15:05:00,
2013-08-03 11:10:00,80.3,18.8,30.03,North,0,0.0,0.0,1,0.00,,,0.00,WUHU216HW,2013-08-03 15:10:00,
2013-08-03 11:15:00,80.3,18.8,30.03,North,0,0.0,0.0,1,0.00,,,0.00,WUHU216HW,2013-08-03 15:15:00,
2013-08-03 11:20:00,80.1,18.6,30.03,North,0,0.0,0.0,1,0.00,,,0.00,WUHU216HW,2013-08-03 15:20:00,
2013-08-03 11:25:00,80.1,18.6,30.03,North,0,0.0,0.0,1,0.00,,,0.00,WUHU216HW,2013-08-03 15:25:00,
2013-08-03 11:30:00,80.6,19.1,30.03,North,0,0.0,0.0,1,0.00,,,0.00,WUHU216HW,2013-08-03 15:30:00,
2013-08-03 11:35:00,80.1,18.6,30.03,North,0,0.0,0.0,1,0.00,,,0.00,WUHU216HW,2013-08-03 15:35:00,
2013-08-03 11:40:00,80.6,19.1,30.03,North,0,0.0,0.0,1,0.00,,,0.00,WUHU216HW,2013-08-03 15:40:00,
2013-08-03 11:45:00,81.0,19.4,30.03,North,0,0.0,0.0,1,0.00,,,0.00,WUHU216HW,2013-08-03 15:45:00,
2013-08-03 11:50:00,82.1,20.3,30.03,North,0,0.0,0.0,1,0.00,,,0.00,WUHU216HW,2013-08-03 15:50:00,
2013-08-03 11:55:00,82.3,20.3,30.03,North,0,0.0,0.0,1,0.00,,,0.00,WUHU216HW,2013-08-03 15:55:00,
2013-08-03 12:00:00,83.2,21.1,30.03,North,0,0.0,0.0,1,0.00,,,0.00,WUHU216HW,2013-08-03 16:00:00,
2013-08-03 12:05:00,83.2,21.1,30.03,North,0,0.0,0.0,1,0.00,,,0.00,WUHU216HW,2013-08-03 16:05:00,
2013-08-03 12:10:00,83.5,21.2,30.03,North,0,0.0,0.0,1,0.00,,,0.00,WUHU216HW,2013-08-03 16:10:00,
2013-08-03 12:15:00,83.9,21.5,30.02,North,0,0.0,0.0,1,0.00,,,0.00,WUHU216HW,2013-08-03 16:15:00,
2013-08-03 12:20:00,84.2,21.8,30.02,North,0,0.0,0.0,1,0.00,,,0.00,WUHU216HW,2013-08-03 16:20:00,
2013-08-03 12:25:00,84.6,22.1,30.02,North,0,0.0,0.0,1,0.00,,,0.00,WUHU216HW,2013-08-03 16:25:00,
2013-08-03 12:30:00,84.4,22.0,30.02,North,0,0.0,0.0,1,0.00,,,0.00,WUHU216HW,2013-08-03 16:30:00,
2013-08-03 12:35:00,84.6,22.1,30.01,North,0,0.0,0.0,1,0.00,,,0.00,WUHU216HW,2013-08-03 16:35:00,
2013-08-03 12:40:00,84.8,22.2,30.02,North,0,0.0,0.0,1,0.00,,,0.00,WUHU216HW,2013-08-03 16:40:00,
2013-08-03 12:45:00,85.3,22.7,30.02,North,0,0.0,0.0,1,0.00,,,0.00,WUHU216HW,2013-08-03 16:45:00,
2013-08-03 12:50:00,85.5,22.8,30.02,North,0,0.0,0.0,1,0.00,,,0.00,WUHU216HW,2013-08-03 16:50:00,
2013-08-03 12:55:00,85.5,22.8,30.02,North,0,0.0,0.0,1,0.00,,,0.00,WUHU216HW,2013-08-03 16:55:00,
2013-08-03 13:00:00,85.5,22.8,30.01,North,0,0.0,0.0,1,0.00,,,0.00,WUHU216HW,2013-08-03 17:00:00,
2013-08-03 13:05:00,85.5,22.8,30.01,North,0,0.0,0.0,1,0.00,,,0.00,WUHU216HW,2013-08-03 17:05:00,
2013-08-03 13:10:00,85.7,23.0,30.01,North,0,0.0,0.0,1,0.00,,,0.00,WUHU216HW,2013-08-03 17:10:00,
2013-08-03 13:15:00,86.0,23.2,30.01,North,0,0.0,0.0,1,0.00,,,0.00,WUHU216HW,2013-08-03 17:15:00,
2013-08-03 13:20:00,86.2,23.4,30.01,North,0,0.0,0.0,1,0.00,,,0.00,WUHU216HW,2013-08-03 17:20:00,
2013-08-03 13:25:00,86.6,23.7,30.01,North,0,0.0,0.0,1,0.00,,,0.00,WUHU216HW,2013-08-03 17:25:00,
2013-08-03 13:30:00,86.9,23.9,30.01,North,0,0.0,0.0,3,0.00,,,0.00,WUHU216HW,2013-08-03 17:30:00,
2013-08-03 13:35:00,87.1,24.1,30.00,North,0,0.0,0.0,6,0.00,,,0.00,WUHU216HW,2013-08-03 17:35:00,
2013-08-03 13:40:00,87.3,24.2,30.00,North,0,0.0,0.0,7,0.00,,,0.00,WUHU216HW,2013-08-03 17:40:00,
2013-08-03 13:45:00,87.1,36.1,30.00,North,0,0.0,0.0,17,0.00,,,0.00,WUHU216HW,2013-08-03 17:45:00,
2013-08-03 13:50:00,87.1,27.6,30.00,North,0,0.0,0.0,12,0.00,,,0.00,WUHU216HW,2013-08-03 17:50:00,
2013-08-03 13:55:00,86.9,36.0,30.00,North,0,0.0,0.0,17,0.00,,,0.00,WUHU216HW,2013-08-03 17:55:00,
2013-08-03 14:00:00,86.8,25.5,30.00,North,0,0.0,0.0,11,0.00,,,0.00,WUHU216HW,2013-08-03 18:00:00,
2013-08-03 14:05:00,87.1,32.7,30.00,North,0,0.0,0.0,15,0.00,,,0.00,WUHU216HW,2013-08-03 18:05:00,
2013-08-03 14:10:00,87.7,29.7,29.99,North,0,0.0,0.0,13,0.00,,,0.00,WUHU216HW,2013-08-03 18:10:00,
2013-08-03 14:15:00,88.0,35.2,29.99,North,0,0.0,0.0,16,0.00,,,0.00,WUHU216HW,2013-08-03 18:15:00,
2013-08-03 14:20:00,88.2,35.3,29.99,North,0,0.0,0.0,16,0.00,,,0.00,WUHU216HW,2013-08-03 18:20:00,
2013-08-03 14:25:00,87.7,38.4,29.99,North,0,0.0,0.0,18,0.00,,,0.00,WUHU216HW,2013-08-03 18:25:00,
2013-08-03 14:30:00,87.7,43.9,29.99,North,0,0.0,0.0,22,0.00,,,0.00,WUHU216HW,2013-08-03 18:30:00,
2013-08-03 14:35:00,87.5,36.5,29.99,North,0,0.0,0.0,17,0.00,,,0.00,WUHU216HW,2013-08-03 18:35:00,
2013-08-03 14:40:00,87.1,34.4,29.99,North,0,0.0,0.0,16,0.00,,,0.00,WUHU216HW,2013-08-03 18:40:00,
2013-08-03 14:45:00,86.8,39.2,29.99,North,0,0.0,0.0,19,0.00,,,0.00,WUHU216HW,2013-08-03 18:45:00,
2013-08-03 14:50:00,86.2,28.5,29.99,North,0,0.0,0.0,13,0.00,,,0.00,WUHU216HW,2013-08-03 18:50:00,
2013-08-03 14:55:00,86.2,28.5,29.98,North,0,0.0,0.0,13,0.00,,,0.00,WUHU216HW,2013-08-03 18:55:00,
2013-08-03 15:00:00,86.6,25.4,29.98,North,0,0.0,0.0,11,0.00,,,0.00,WUHU216HW,2013-08-03 19:00:00,
2013-08-03 15:05:00,86.8,39.6,29.98,North,0,0.0,0.0,19,0.00,,,0.00,WUHU216HW,2013-08-03 19:05:00,
2013-08-03 15:10:00,87.1,34.4,29.97,North,0,0.0,0.0,16,0.00,,,0.00,WUHU216HW,2013-08-03 19:10:00,
2013-08-03 15:15:00,87.7,42.8,29.98,North,0,0.0,0.0,21,0.00,,,0.00,WUHU216HW,2013-08-03 19:15:00,
2013-08-03 15:20:00,87.5,36.5,29.98,North,0,0.0,0.0,17,0.00,,,0.00,WUHU216HW,2013-08-03 19:20:00,
2013-08-03 15:25:00,87.8,29.9,29.97,North,0,0.0,0.0,13,0.00,,,0.00,WUHU216HW,2013-08-03 19:25:00,
2013-08-03 15:30:00,88.7,27.0,29.97,North,0,0.0,0.0,11,0.00,,,0.00,WUHU216HW,2013-08-03 19:30:00,
2013-08-03 15:35:00,88.4,43.5,29.97,North,0,0.0,0.0,21,0.00,,,0.00,WUHU216HW,2013-08-03 19:35:00,
2013-08-03 15:40:00,88.2,37.0,29.97,North,0,0.0,0.0,17,0.00,,,0.00,WUHU216HW,2013-08-03 19:40:00,
2013-08-03 15:45:00,87.8,28.1,29.97,North,0,0.0,0.0,12,0.00,,,0.00,WUHU216HW,2013-08-03 19:45:00,
2013-08-03 15:50:00,87.3,25.9,29.97,North,0,0.0,0.0,11,0.00,,,0.00,WUHU216HW,2013-08-03 19:50:00,
2013-08-03 15:55:00,86.4,23.5,29.97,North,0,0.0,0.0,9,0.00,,,0.00,WUHU216HW,2013-08-03 19:55:00,
2013-08-03 16:00:00,85.3,27.8,29.97,North,0,0.0,0.0,13,0.00,,,0.00,WUHU216HW,2013-08-03 20:00:00,
2013-08-03 16:05:00,84.6,22.1,29.96,North,0,0.0,0.0,8,0.00,,,0.00,WUHU216HW,2013-08-03 20:05:00,
2013-08-03 16:10:00,84.2,21.8,29.96,North,0,0.0,0.0,3,0.00,,,0.00,WUHU216HW,2013-08-03 20:10:00,
2013-08-03 16:15:00,84.4,22.0,29.96,North,0,0.0,0.0,1,0.00,,,0.00,WUHU216HW,2013-08-03 20:15:00,
2013-08-03 16:20:00,84.4,22.0,29.96,North,0,0.0,0.0,1,0.00,,,0.00,WUHU216HW,2013-08-03 20:20:00,
2013-08-03 16:25:00,84.4,22.0,29.96,North,0,0.0,0.0,1,0.00,,,0.00,WUHU216HW,2013-08-03 20:25:00,
2013-08-03 16:30:00,84.2,21.8,29.96,North,0,0.0,0.0,1,0.00,,,0.00,WUHU216HW,2013-08-03 20:30:00,
2013-08-03 16:35:00,84.1,21.7,29.96,North,0,0.0,0.0,1,0.00,,,0.00,WUHU216HW,2013-08-03 20:35:00,
2013-08-03 16:40:00,84.4,22.0,29.96,North,0,0.0,0.0,1,0.00,,,0.00,WUHU216HW,2013-08-03 20:40:00,
2013-08-03 16:45:00,83.9,21.5,29.96,North,0,0.0,0.0,1,0.00,,,0.00,WUHU216HW,2013-08-03 20:45:00,
2013-08-03 16:50:00,83.3,21.2,29.96,North,0,0.0,0.0,1,0.00,,,0.00,WUHU216HW,2013-08-03 20:50:00,
2013-08-03 16:55:00,83.3,21.2,29.96,North,0,0.0,0.0,1,0.00,,,0.00,WUHU216HW,2013-08-03 20:55:00,
2013-08-03 17:00:00,83.2,21.1,29.96,North,0,0.0,0.0,1,0.00,,,0.00,WUHU216HW,2013-08-03 21:00:00,
2013-08-03 17:05:00,82.8,20.8,29.96,North,0,0.0,0.0,1,0.00,,,0.00,WUHU216HW,2013-08-03 21:05:00,
2013-08-03 17:10:00,82.4,20.5,29.96,North,0,0.0,0.0,1,0.00,,,0.00,WUHU216HW,2013-08-03 21:10:00,
2013-08-03 17:15:00,82.6,20.6,29.96,North,0,0.0,0.0,1,0.00,,,0.00,WUHU216HW,2013-08-03 21:15:00,
2013-08-03 17:20:00,82.8,20.8,29.96,North,0,0.0,0.0,1,0.00,,,0.00,WUHU216HW,2013-08-03 21:20:00,
2013-08-03 17:25:00,82.8,20.8,29.96,North,0,0.0,0.0,1,0.00,,,0.00,WUHU216HW,2013-08-03 21:25:00,
2013-08-03 17:30:00,83.0,20.9,29.97,North,0,0.0,0.0,1,0.00,,,0.00,WUHU216HW,2013-08-03 21:30:00,
2013-08-03 17:35:00,82.8,20.8,29.97,North,0,0.0,0.0,1,0.00,,,0.00,WUHU216HW,2013-08-03 21:35:00,
2013-08-03 17:40:00,82.6,20.6,29.96,North,0,0.0,0.0,1,0.00,,,0.00,WUHU216HW,2013-08-03 21:40:00,
2013-08-03 17:45:00,82.4,20.5,29.97,North,0,0.0,0.0,1,0.00,,,0.00,WUHU216HW,2013-08-03 21:45:00,
2013-08-03 17:50:00,82.1,20.3,29.97,North,0,0.0,0.0,1,0.00,,,0.00,WUHU216HW,2013-08-03 21:50:00,
2013-08-03 17:55:00,82.1,20.3,29.97,North,0,0.0,0.0,1,0.00,,,0.00,WUHU216HW,2013-08-03 21:55:00,
2013-08-03 18:00:00,81.9,20.1,29.97,North,0,0.0,0.0,1,0.00,,,0.00,WUHU216HW,2013-08-03 22:00:00,
2013-08-03 18:05:00,81.7,20.0,29.96,North,0,0.0,0.0,1,0.00,,,0.00,WUHU216HW,2013-08-03 22:05:00,
2013-08-03 18:10:00,81.9,20.1,29.96,North,0,0.0,0.0,1,0.00,,,0.00,WUHU216HW,2013-08-03 22:10:00,
2013-08-03 18:15:00,81.7,20.0,29.96,North,0,0.0,0.0,1,0.00,,,0.00,WUHU216HW,2013-08-03 22:15:00,
2013-08-03 18:20:00,81.4,19.6,29.96,North,0,0.0,0.0,1,0.00,,,0.00,WUHU216HW,2013-08-03 22:20:00,
2013-08-03 18:25:00,81.0,19.4,29.96,North,0,0.0,0.0,1,0.00,,,0.00,WUHU216HW,2013-08-03 22:25:00,
2013-08-03 18:30:00,81.0,19.4,29.96,North,0,0.0,0.0,1,0.00,,,0.00,WUHU216HW,2013-08-03 22:30:00,
2013-08-03 18:35:00,80.8,19.3,29.96,North,0,0.0,0.0,1,0.00,,,0.00,WUHU216HW,2013-08-03 22:35:00,
2013-08-03 18:40:00,80.5,18.9,29.96,North,0,0.0,0.0,1,0.00,,,0.00,WUHU216HW,2013-08-03 22:40:00,
2013-08-03 18:45:00,80.5,18.9,29.96,North,0,0.0,0.0,1,0.00,,,0.00,WUHU216HW,2013-08-03 22:45:00,
2013-08-03 18:50:00,80.5,18.9,29.96,North,0,0.0,0.0,1,0.00,,,0.00,WUHU216HW,2013-08-03 22:50:00,
2013-08-03 18:55:00,80.3,18.8,29.96,North,0,0.0,0.0,1,0.00,,,0.00,WUHU216HW,2013-08-03 22:55:00,
2013-08-03 19:00:00,80.1,18.6,29.96,North,0,0.0,0.0,1,0.00,,,0.00,WUHU216HW,2013-08-03 23:00:00,
2013-08-03 19:05:00,79.7,18.4,29.96,North,0,0.0,0.0,1,0.00,,,0.00,WUHU216HW,2013-08-03 23:05:00,
2013-08-03 19:11:00,79.2,17.9,29.96,North,0,0.0,0.0,1,0.00,,,0.00,WUHU216HW,2013-08-03 23:11:00,
2013-08-03 19:16:00,78.8,17.6,29.96,North,0,0.0,0.0,1,0.00,,,0.00,WUHU216HW,2013-08-03 23:16:00,
2013-08-03 19:21:00,78.7,17.6,29.96,North,0,0.0,0.0,1,0.00,,,0.00,WUHU216HW,2013-08-03 23:21:00,
2013-08-03 19:26:00,78.3,17.3,29.96,North,0,0.0,0.0,1,0.00,,,0.00,WUHU216HW,2013-08-03 23:26:00,
2013-08-03 19:31:00,78.1,17.1,29.96,North,0,0.0,0.0,1,0.09,,,0.07,WUHU216HW,2013-08-03 23:31:00,
2013-08-03 19:36:00,77.0,16.4,29.96,North,0,0.0,0.0,1,0.11,,,0.11,WUHU216HW,2013-08-03 23:36:00,
2013-08-03 19:41:00,76.3,15.9,29.96,North,0,0.0,0.0,1,0.12,,,0.12,WUHU216HW,2013-08-03 23:41:00,
2013-08-03 19:46:00,75.2,14.9,29.96,North,0,0.0,0.0,1,0.12,,,0.12,WUHU216HW,2013-08-03 23:46:00,
2013-08-03 19:51:00,74.7,14.6,29.96,North,0,0.0,0.0,1,0.12,,,0.12,WUHU216HW,2013-08-03 23:51:00,
2013-08-03 19:56:00,74.3,14.3,29.96,North,0,0.0,0.0,1,0.12,,,0.12,WUHU216HW,2013-08-03 23:56:00,
2013-08-03 20:01:00,74.2,14.2,29.96,North,0,0.0,0.0,1,0.12,,,0.12,WUHU216HW,2013-08-04 00:01:00,
2013-08-03 20:06:00,74.3,14.3,29.96,North,0,0.0,0.0,1,0.12,,,0.12,WUHU216HW,2013-08-04 00:06:00,
2013-08-03 20:11:00,74.3,14.3,29.96,North,0,0.0,0.0,1,0.12,,,0.12,WUHU216HW,2013-08-04 00:11:00,
2013-08-03 20:15:00,74.3,14.3,29.97,North,0,0.0,0.0,1,0.12,,,0.12,WUHU216HW,2013-08-04 00:15:00,
2013-08-03 20:21:00,74.2,14.2,29.97,North,0,0.0,0.0,1,0.12,,,0.12,WUHU216HW,2013-08-04 00:21:00,
2013-08-03 20:26:00,73.8,14.0,29.97,North,0,0.0,0.0,1,0.07,,,0.12,WUHU216HW,2013-08-04 00:26:00,
2013-08-03 20:31:00,73.4,13.7,29.97,North,0,0.0,0.0,1,0.01,,,0.12,WUHU216HW,2013-08-04 00:31:00,
2013-08-03 20:36:00,73.3,13.5,29.97,North,0,0.0,0.0,1,0.00,,,0.12,WUHU216HW,2013-08-04 00:36:00,
2013-08-03 20:40:00,73.1,13.4,29.97,North,0,0.0,0.0,1,0.00,,,0.12,WUHU216HW,2013-08-04 00:40:00,
2013-08-03 20:46:00,72.9,13.2,29.97,North,0,0.0,0.0,1,0.00,,,0.12,WUHU216HW,2013-08-04 00:46:00,
2013-08-03 20:51:00,72.5,13.0,29.97,North,0,0.0,0.0,1,0.00,,,0.12,WUHU216HW,2013-08-04 00:51:00,
2013-08-03 20:56:00,72.5,13.0,29.97,North,0,0.0,0.0,1,0.00,,,0.12,WUHU216HW,2013-08-04 00:56:00,
2013-08-03 21:01:00,72.5,13.0,29.97,North,0,0.0,0.0,1,0.00,,,0.12,WUHU216HW,2013-08-04 01:01:00,
2013-08-03 21:06:00,72.4,12.8,29.97,North,0,0.0,0.0,1,0.00,,,0.12,WUHU216HW,2013-08-04 01:06:00,
2013-08-03 21:11:00,72.4,12.8,29.97,North,0,0.0,0.0,1,0.00,,,0.12,WUHU216HW,2013-08-04 01:11:00,
2013-08-03 21:15:00,72.2,12.7,29.97,North,0,0.0,0.0,1,0.00,,,0.12,WUHU216HW,2013-08-04 01:15:00,
2013-08-03 21:21:00,72.0,12.5,29.98,North,0,0.0,0.0,1,0.00,,,0.12,WUHU216HW,2013-08-04 01:21:00,
2013-08-03 21:26:00,71.6,12.2,29.98,North,0,0.0,0.0,1,0.00,,,0.12,WUHU216HW,2013-08-04 01:26:00,
2013-08-03 21:31:00,71.3,12.0,29.98,North,0,0.0,0.0,1,0.00,,,0.12,WUHU216HW,2013-08-04 01:31:00,
2013-08-03 21:35:00,71.1,11.8,29.98,North,0,0.0,0.0,1,0.00,,,0.12,WUHU216HW,2013-08-04 01:35:00,
2013-08-03 21:41:00,70.9,11.7,29.99,North,0,0.0,0.0,1,0.00,,,0.12,WUHU216HW,2013-08-04 01:41:00,
2013-08-03 21:45:00,70.9,11.7,29.98,North,0,0.0,0.0,1,0.00,,,0.12,WUHU216HW,2013-08-04 01:45:00,
2013-08-03 21:51:00,70.9,11.7,29.98,North,0,0.0,0.0,1,0.00,,,0.12,WUHU216HW,2013-08-04 01:51:00,
2013-08-03 21:55:00,70.9,11.7,29.99,North,0,0.0,0.0,1,0.00,,,0.12,WUHU216HW,2013-08-04 01:55:00,
2013-08-03 22:01:00,70.9,11.7,29.99,North,0,0.0,0.0,1,0.00,,,0.12,WUHU216HW,2013-08-04 02:01:00,
2013-08-03 22:05:00,70.9,11.7,29.99,North,0,0.0,0.0,1,0.00,,,0.12,WUHU216HW,2013-08-04 02:05:00,
2013-08-03 22:11:00,70.7,11.5,29.99,North,0,0.0,0.0,1,0.00,,,0.12,WUHU216HW,2013-08-04 02:11:00,
2013-08-03 22:16:00,70.6,11.3,29.99,North,0,0.0,0.0,1,0.00,,,0.12,WUHU216HW,2013-08-04 02:16:00,
2013-08-03 22:21:00,70.6,11.3,29.99,North,0,0.0,0.0,1,0.00,,,0.12,WUHU216HW,2013-08-04 02:21:00,
2013-08-03 22:26:00,70.4,11.3,29.99,North,0,0.0,0.0,1,0.00,,,0.12,WUHU216HW,2013-08-04 02:26:00,
2013-08-03 22:30:00,70.2,11.1,29.99,North,0,0.0,0.0,1,0.00,,,0.12,WUHU216HW,2013-08-04 02:30:00,
2013-08-03 22:35:00,70.2,11.1,29.99,North,0,0.0,0.0,1,0.00,,,0.12,WUHU216HW,2013-08-04 02:35:00,
2013-08-03 22:40:00,70.0,11.0,29.99,North,0,0.0,0.0,1,0.00,,,0.12,WUHU216HW,2013-08-04 02:40:00,
2013-08-03 22:45:00,69.8,10.8,29.99,North,0,0.0,0.0,1,0.00,,,0.12,WUHU216HW,2013-08-04 02:45:00,
2013-08-03 22:51:00,69.8,10.8,29.99,North,0,0.0,0.0,1,0.00,,,0.12,WUHU216HW,2013-08-04 02:51:00,
2013-08-03 22:56:00,69.7,10.7,29.99,North,0,0.0,0.0,1,0.00,,,0.12,WUHU216HW,2013-08-04 02:56:00,
2013-08-03 23:01:00,69.7,10.7,29.99,North,0,0.0,0.0,1,0.00,,,0.12,WUHU216HW,2013-08-04 03:01:00,
2013-08-03 23:06:00,69.7,10.7,29.99,North,0,0.0,0.0,1,0.00,,,0.12,WUHU216HW,2013-08-04 03:06:00,
2013-08-03 23:11:00,69.5,10.5,29.98,North,0,0.0,0.0,1,0.00,,,0.12,WUHU216HW,2013-08-04 03:11:00,
2013-08-03 23:16:00,69.5,10.5,29.98,North,0,0.0,0.0,1,0.00,,,0.12,WUHU216HW,2013-08-04 03:16:00,
2013-08-03 23:21:00,69.3,10.5,29.98,North,0,0.0,0.0,1,0.00,,,0.12,WUHU216HW,2013-08-04 03:21:00,
2013-08-03 23:26:00,69.1,10.3,29.98,North,0,0.0,0.0,1,0.00,,,0.12,WUHU216HW,2013-08-04 03:26:00,
2013-08-03 23:31:00,68.9,10.2,29.98,North,0,0.0,0.0,1,0.00,,,0.12,WUHU216HW,2013-08-04 03:31:00,
2013-08-03 23:35:00,68.8,10.1,29.98,North,0,0.0,0.0,1,0.00,,,0.12,WUHU216HW,2013-08-04 03:35:00,
2013-08-03 23:41:00,68.8,10.1,29.98,North,0,0.0,0.0,1,0.00,,,0.12,WUHU216HW,2013-08-04 03:41:00,
2013-08-03 23:46:00,68.6,9.9,29.98,North,0,0.0,0.0,1,0.00,,,0.12,WUHU216HW,2013-08-04 03:46:00,
2013-08-03 23:51:00,68.4,9.8,29.99,North,0,0.0,0.0,1,0.00,,,0.12,WUHU216HW,2013-08-04 03:51:00,
2013-08-03 23:55:00,68.6,9.9,29.99,North,0,0.0,0.0,1,0.00,,,0.12,WUHU216HW,2013-08-04 03:55:00,